Regional Weather Roundup
Issued by NWS

Home | Current Version | Previous Version | Text Only | Print | Product List | Glossary On
Versions: 1 2 3 4 5 6 7 8 9 10 11 12 13 14 15 16 17 18 19 20 21 22 23 24 25 26 27 28 29 30 31 32 33 34 35 36 37 38 39 40 41 42 43 44 45 46 47 48 49 50
000
ASUS43 KOAX 270110
RWRNE

WEATHER ROUNDUP FOR NEBRASKA
NATIONAL WEATHER SERVICE OMAHA NE
800 PM CDT SUN APR 26 2015

NOTES: SATELLITE DATA IS BEING USED TO AUGMENT CLOUD COVER ABOVE
       12000 FEET.
       "FAIR" INDICATES FEW OR NO CLOUDS BELOW 12,000 FEET WITH NO
       SIGNIFICANT WEATHER AND/OR OBSTRUCTIONS TO VISIBILITY.

  * THESE STATIONS DO NOT REPORT WEATHER SUCH AS RAIN...SNOW OR FOG.

NEZ001>004-019>022-054>056-270200-
NEBRASKA PANHANDLE

CITY           SKY/WX    TMP DP  RH WIND       PRES   REMARKS
SCOTTSBLUFF    CLOUDY    46  32  58 SE12      30.03R
ALLIANCE       CLOUDY    46  38  73 SE9       30.04R
CHADRON        CLOUDY    51  43  74 SE9       30.03R
KIMBALL        LGT RAIN  40  40  99 E14       30.00R VSB 3/4 WCI  33
SIDNEY         LGT RAIN  41  40  96 E12       30.02R VSB 1/2
$$

NEZ057>060-069>072-079>082-270200-
SOUTHWEST NEBRASKA

CITY           SKY/WX    TMP DP  RH WIND       PRES   REMARKS
IMPERIAL       CLOUDY    47  42  83 NE9       30.00R
LEXINGTON      CLOUDY    53  44  70 E9        30.00R
MCCOOK         CLOUDY    52  43  71 NE12      29.98R
OGALLALA       CLOUDY    48  43  84 E8        30.02R
$$

NEZ005>010-023>029-035>040-094-270200-
NORTH CENTRAL NEBRASKA

CITY           SKY/WX    TMP DP  RH WIND       PRES   REMARKS
VALENTINE      MOCLDY    57  35  43 E8        30.04R
AINSWORTH      PTCLDY    57  29  34 E9        30.03S
BROKEN BOW     PTCLDY    54  40  59 E7        30.00S
O`NEILL        CLEAR     59  32  35 E6        30.04S
ORD            CLEAR     56  36  47 E10       30.01R
THEDFORD       MOCLDY    56  39  52 E9        30.03R
$$

NEZ041-046>049-061>064-073>077-083>087-270200-
SOUTH CENTRAL NEBRASKA

CITY           SKY/WX    TMP DP  RH WIND       PRES   REMARKS
GRAND ISLAND   CLEAR     55  41  59 E9        30.01R
AURORA         CLEAR     55  42  60 E9        30.00R
HASTINGS       PTCLDY    54  42  64 E8        29.99R
HEBRON         CLEAR     57  39  51 E9        29.97R
HOLDREGE       CLOUDY    53  42  67 E10       29.99R
KEARNEY *      CLOUDY    54  41  62 E10       30.00R
YORK           CLEAR     55  41  58 E8        30.00R
$$

NEZ011>018-030>034-042>045-270200-
NORTHEAST NEBRASKA

CITY           SKY/WX    TMP DP  RH WIND       PRES   REMARKS
NORFOLK        CLEAR     59  33  37 E7        30.03R
ALBION         CLEAR     57  33  39 E7        30.03R
BLAIR          CLEAR     58  35  42 NE8       30.01S
COLUMBUS *     CLEAR     57  36  44 E12       30.04R
FREMONT        CLEAR     60  36  41 NE7       30.02S
TEKAMAH          N/A     60  35  39 NE8       30.03R
WAYNE          CLEAR     61  33  34 E6        30.04R
$$

NEZ050>053-065>068-078-088>093-270200-
SOUTHEAST NEBRASKA

CITY           SKY/WX    TMP DP  RH WIND       PRES   REMARKS
LINCOLN        CLEAR     58  36  43 E12       30.01R
OMAHA EPPLEY   PTCLDY    60  35  39 NE10      30.02R
BEATRICE       CLEAR     58  38  48 NE8       29.97S
FALLS CITY     CLEAR     58  36  43 NE12      29.96R
NEBRASKA CITY  CLEAR     58  27  30 NE9       29.99R
PLATTSMOUTH    CLEAR     57  32  38 NE12      30.00S
$$

NEZ044-045-051>053-067-270200-
OMAHA AREA

CITY           SKY/WX    TMP DP  RH WIND       PRES   REMARKS
OMAHA EPPLEY   PTCLDY    60  35  39 NE10      30.02R
BLAIR          CLEAR     58  35  42 NE8       30.01S
FREMONT        CLEAR     60  36  41 NE7       30.02S
MILLARD        CLEAR     60  36  40 NE3       30.01S
OFFUTT AFB     CLEAR     58  36  43 NE6       30.00R
PLATTSMOUTH    CLEAR     57  32  38 NE12      30.00S
WAHOO          FAIR      58  35  41 E9        30.01S
$$



USA.gov is the U.S. government's official web portal to all federal, state and local government web resources and services.